Location: Hermaringen
(48.5952°N, 10.2585°E)
Time: 05:53:25
(UTC+00:00)

Transit 2A - Pass Details

Date: 22 February 2026
Orbit: 590 x 954 km, 66.7° (Epoch: 14 March)

Event Time Altitude Azimuth Distance (km) Brightness Sun altitude
Rises 17:45:42 0° 324° (NW) 3,611 9.9 -9.7°
Reaches altitude 10° 17:48:39 10° 335° (NNW) 2,634 9.1 -10.2°
Maximum altitude 17:54:01 31° 36° (NE) 1,521 7.2 -11.0°
Enters shadow 17:57:51 16° 89° (E) 2,102 7.6 -11.7°
